Terug naar catalogus

NOAA 16 DEB

ActiefPO
NORAD 42374·DEBRIS·🇺🇸 United States

Gelanceerd Sep 21, 2000 vanaf Vandenberg Space Force Base

Loading…

Volgende Passages (komende 24 uur)

TLE

VersSource: Space-Track

Epoch: Sep 13, 2026, 21:48 UTC

1 42374U 00055RS  26256.90894720  .00035793  00000-0  39242-2 0  9999
2 42374  98.8346  58.9652 0006449 116.1764 244.0113 14.87607399541935

Volg NOAA 16 DEB in realtime met AllMySat

Download on the App Store